Showing default

KUIPER-00438, 68940

Orbit data source: Space-Track

KUIPER-00438, 68940 is a payload satellite owned by Kuiper Systems (US) in LEO that was launched on Thu, 30 Apr 2026 UTC via an ARIANE 64 launch vehicle from the Air Force Eastern Test Range (AFETR). Payload-class satellites include a variety of spacecraft equipped with specific instruments for various scientific and technological missions. These include communications satellites like Starlink; space stations such as the ISS; scientific satellites like the Hubble; Earth observation satellites from companies like Planet Labs, Umbra, and HawkEye 360; GPS; miniature CubeSats for education and research; and military/defense satellites.

Loading next visibility...
Identifier
68940, 2026-098X
Orbit
LEO
Country
Flag of USUS
Related business
Manufacturer
Kuiper Systems
Mission
Operational spacecraft
Bus & Motor
KUIPER, Unknown motor
Mass
~490 kg wet, ~490 kg dry
Launch date (UTC)
2026-04-30 (6 days ago)
Launch vehicle
ARIANE 64
Launch site
Air Force Eastern Test Range (AFETR)
Object type
Payload
Rocket body
Debris
Shape & HBR
Unknown
Radar Cross Section
RCS unknown

Expand to show TLE details & history
Last TLE update: 6 hours ago

TLE from 6 hours ago
0 KUIPER-00438
1 68940U 26098X   26126.25002315  .00056601  00000-0  16322-2 0  9991
2 68940  51.8748 269.7523 0004679   4.4362  86.4058 15.35153092  1300
Epoch: 2026-05-06T06:00Z
TLE epoch observation values (Epoch: 2026-05-06T06:00:02.000Z)
Latitude
52.02028°
Longitude
47.08271°
Altitude
466.407 km
Speed
7.64 km/s
True Right ascension
00h 04m 49s
True Declination
51° 50' 46"
Sunlit
Object was in daylight at epoch
Visualization orbit readout
Latitude
Unknown
Longitude
Unknown
Altitude
Unknown
Speed
Unknown
Apparent Right ascension
Unknown
Apparent Declination
Unknown
Sunlit
N/A
Visualization observer readout
Local Sidereal Time
20:22:08
Azimuth
Unknown
Elevation
Unknown
Doppler factor
Unknown
Orbital elements
Apogee altitude
464.132 km
Perigee altitude
457.732 km
Semi-major axis
6,839.069 km
Eccentricity
0.00047
Inclination
51.8748°
RAAN
269.7523°
Arg. of periapsis
4.4362°
True anomaly
86.45931°
Mean anomaly
86.4058°
Eccentric anomaly
86.43256°
Mean motion
3.83749 °/min
Orbital period
93.81 mins
BSTAR
0.0016322
Loading maneuver chart data...
Computing Atmospheric mass density...
Loading historical data...
Loading historical data...
Loading historical data...
Loading historical data...
Loading historical data...
Loading historical data...
Loading historical data...

Documentation

Showing up to 5 results
|